EET,Max TemperatureF,Mean TemperatureF,Min TemperatureF,Max Dew PointF,MeanDew PointF,Min DewpointF,Max Humidity, Mean Humidity, Min Humidity, Max Sea Level PressureIn, Mean Sea Level PressureIn, Min Sea Level PressureIn, Max VisibilityMiles, Mean VisibilityMiles, Min VisibilityMiles, Max Wind SpeedMPH, Mean Wind SpeedMPH, Max Gust SpeedMPH,PrecipitationIn, CloudCover, Events, WindDirDegrees
2013-10-1,95,82,68,61,53,50,56,37,16,29.83,29.79,29.74,6,6,6,7,2,,0.00,,,250
2013-10-2,96,80,65,59,51,46,53,33,17,29.86,29.79,29.74,6,6,6,4,1,,0.00,,,198
2013-10-3,102,85,68,66,53,43,52,32,16,29.89,29.83,29.80,6,6,6,7,1,,0.00,,,312
2013-10-4,97,85,73,64,60,57,61,42,21,29.92,29.87,29.80,6,6,6,7,2,,0.00,,,283
2013-10-5,88,78,68,57,55,52,64,46,27,29.95,29.88,29.83,6,6,6,5,3,,0.00,,,277
2013-10-6,87,76,64,56,52,46,73,45,22,29.95,29.89,29.83,6,6,6,9,3,,0.00,,,286
2013-10-7,89,75,61,55,52,46,59,43,21,29.98,29.93,29.89,6,6,6,5,2,,0.00,,,234
2013-10-8,92,76,61,57,51,46,59,39,19,29.98,29.92,29.86,6,6,6,5,1,,0.00,,,352
2013-10-9,95,78,62,61,49,37,52,35,18,29.95,29.90,29.86,6,5,4,4,1,,0.00,,,252
2013-10-10,97,80,64,59,52,45,52,36,19,29.98,29.93,29.89,6,6,6,4,1,,0.00,,,286
2013-10-11,96,78,60,61,51,41,59,36,14,30.01,29.95,29.89,6,5,4,5,1,,0.00,,,337
2013-10-12,96,80,65,59,51,43,47,35,20,29.98,29.90,29.83,6,5,4,6,2,,0.00,,,245
2013-10-13,96,81,66,59,52,46,52,37,15,29.92,29.85,29.80,6,6,6,6,1,,0.00,,,266
2013-10-14,90,80,69,66,60,52,78,51,24,29.95,29.89,29.83,6,5,3,7,3,,0.00,,,269
2013-10-15,93,80,66,64,57,50,68,47,22,29.98,29.93,29.88,6,6,6,4,1,,0.00,,,251
2013-10-16,93,78,64,55,50,45,50,37,18,29.95,29.89,29.83,6,6,6,5,1,,0.00,,,244
2013-10-17,90,76,63,57,51,46,64,40,16,29.92,29.86,29.80,6,6,6,5,2,,0.00,,,203
2013-10-18,95,78,60,57,51,46,68,38,14,29.95,29.90,29.86,6,5,4,5,1,,0.00,,,34
2013-10-19,93,80,67,63,56,50,61,43,20,30.04,29.98,29.92,6,6,5,5,2,,0.00,,,347
2013-10-20,91,76,62,61,56,50,64,47,31,30.04,29.97,29.89,6,5,4,9,1,,0.00,,,340
2013-10-21,96,80,64,63,55,50,64,43,18,29.95,29.90,29.83,6,6,6,4,1,,0.00,,,24
2013-10-22,98,81,64,61,54,46,56,39,20,29.92,29.87,29.80,6,5,4,5,1,,0.00,,,274
2013-10-23,97,81,65,63,56,48,57,41,17,29.95,29.89,29.83,6,5,5,7,2,,0.00,,,268
2013-10-24,94,81,68,61,57,52,68,46,20,29.93,29.89,29.83,6,5,4,7,3,,0.00,,,271
2013-10-25,93,78,64,63,58,52,73,49,23,29.93,29.87,29.83,6,5,4,4,1,,0.00,,,298
2013-10-26,92,78,64,55,50,43,73,38,18,29.92,29.87,29.83,6,5,4,5,2,,0.00,,,290
2013-10-27,87,73,59,55,51,45,72,47,20,29.98,29.92,29.88,6,6,6,6,2,,0.00,,,277
2013-10-28,86,72,57,57,53,48,94,53,27,29.98,29.92,29.86,6,5,4,8,3,,0.00,,,254
2013-10-29,84,72,60,57,52,46,77,51,22,29.95,29.89,29.83,6,5,5,7,3,,0.00,,,254
2013-10-30,82,70,58,55,50,43,64,49,34,29.95,29.91,29.86,6,6,6,5,2,,0.00,,,243
2013-10-31,84,70,57,61,55,43,68,56,37,29.98,29.93,29.89,,,,5,2,,0.00,,,251